Home > Weather > Youngstown > Past weeks

Flag for USA Past Weather in Youngstown, Ohio, USA — Yesterday and Last 2 Weeks

Now
84 °F

Broken clouds.


Feels Like: 85 °F
Forecast: 66 / 88 °F
Wind: 5 mph from North

Location: Youngstown-Warren Regional Airport

Current Time: Jul 27, 2016 at 9:16:42 PM

Latest Report: Jul 27, 2016 at 7:51 PM


Visibility: 10 mi

Pressure: 29.93 "Hg

Humidity: 48%

Dew Point: 62 °F

Location of YoungstownLocation

Past Weather in Youngstown — Graph

°F

Youngstown Temperature Yesterday

Maximum temperature yesterday: 84 °F (at 2:51 PM)
Minimum temperature yesterday: 65 °F (at 11:51 PM)
Average temperature yesterday: 75 °F

High & Low Weather Summary for the Past Weeks

 TemperatureHumidityPressure
High91 °F (Jul 23, 2:51 PM)97% (Jul 17, 2:51 AM)30.28 "Hg (Jul 17, 2:51 AM)
Low52 °F (Jul 20, 4:51 AM)30% (Jul 20, 3:51 PM)29.84 "Hg (Jul 14, 5:51 PM)
Average75 °F69%30.03 "Hg
* Reported Jul 12 7:51 PM — Jul 27 7:51 PM, Youngstown, Weather by CustomWeather, © 2016

Note: Actual official high and low records may vary slightly from our data, if they occured in-between our weather recording intervals... More about our weather records

Advertising

Youngstown Weather History for the Previous 24 Hours

Scroll right to see more
 ConditionsComfort  
Time TempWeatherWind HumidityBarometerVisibility
7:51 PM
Wed, Jul 27
84 °FBroken clouds.5 mph48%29.93 "Hg10 mi
6:51 PM80 °FBroken clouds.3 mph62%29.93 "Hg10 mi
5:51 PM84 °FBroken clouds.No wind45%29.93 "Hg10 mi
4:51 PM86 °FPartly sunny.6 mph40%29.94 "Hg10 mi
3:51 PM87 °FPartly sunny.8 mph39%29.96 "Hg10 mi
2:51 PM86 °FScattered clouds.3 mph39%29.98 "Hg10 mi
1:51 PM85 °FScattered clouds.5 mph42%29.99 "Hg10 mi
12:51 PM85 °FScattered clouds.No wind43%30.01 "Hg10 mi
11:51 AM83 °FPassing clouds.3 mph43%30.02 "Hg10 mi
10:51 AM80 °FPassing clouds.No wind47%30.02 "Hg10 mi
9:51 AM78 °FPassing clouds.3 mph52%30.02 "Hg10 mi
8:51 AM75 °FPassing clouds.3 mph60%30.03 "Hg10 mi
7:51 AM68 °FPassing clouds.3 mph84%30.02 "Hg10 mi
6:51 AM63 °FPassing clouds.No wind90%30.03 "Hg10 mi
5:51 AM64 °FPassing clouds.No wind84%30.01 "Hg10 mi
4:51 AM64 °FMostly cloudy.No wind87%30.00 "Hg10 mi
3:51 AM63 °FPassing clouds.No wind87%30.00 "Hg10 mi
2:51 AM61 °FPassing clouds.No wind93%30.00 "Hg10 mi
1:51 AM62 °FPassing clouds.No wind90%30.01 "Hg10 mi
12:51 AM63 °FPassing clouds.No wind87%30.01 "Hg10 mi
11:51 PM
Tue, Jul 26
65 °FPassing clouds.No wind78%30.00 "Hg10 mi
10:51 PM69 °FPassing clouds.3 mph68%30.01 "Hg10 mi
9:51 PM71 °FPassing clouds.6 mph63%30.02 "Hg10 mi
Weather by CustomWeather, © 2016

See weather overviewHow to use our weather pages